カタログに戻る

CZ-6A DEB

運用中PO
NORAD 64643·DEBRIS·🇨🇳 China

打ち上げ Aug 6, 2024 から Taiyuan Satellite Launch Center

Loading…

次のパス (今後24時間)

TLE

最新Source: Space-Track

元期: Sep 14, 2026, 11:31 UTC

1 64643U 24140AEH 26257.48002502  .00001674  00000-0  66101-3 0  9992
2 64643  89.1402 276.9539 0069737 295.0942  64.3026 14.27355488102734

AllMySatでCZ-6A DEBをリアルタイム追跡

Download on the App Store